owner,sensor,date,latitude,longitude,air_pressure(mBar),qcFlag 
COMPS,ioos:station:USF.COMPS:ARP:1,2011-09-01T00:00:00Z,28.4330,-82.6670,1016.52,1111122 
COMPS,ioos:station:USF.COMPS:ARP:1,2011-09-01T00:06:00Z,28.4330,-82.6670,1016.73,1111122 
COMPS,ioos:station:USF.COMPS:ARP:1,2011-09-01T00:12:00Z,28.4330,-82.6670,1016.86,1111122 
COMPS,ioos:station:USF.COMPS:ARP:1,2011-09-01T00:18:00Z,28.4330,-82.6670,1016.9,1111122 
COMPS,ioos:station:USF.COMPS:ARP:1,2011-09-01T00:24:00Z,28.4330,-82.6670,1016.97,1111122 
COMPS,ioos:station:USF.COMPS:ARP:1,2011-09-01T00:30:00Z,28.4330,-82.6670,1017.06,1111122 
COMPS,ioos:station:USF.COMPS:ARP:1,2011-09-01T00:36:00Z,28.4330,-82.6670,1017.2,1111122 
COMPS,ioos:station:USF.COMPS:ARP:1,2011-09-01T00:42:00Z,28.4330,-82.6670,1017.34,1111122 
COMPS,ioos:station:USF.COMPS:ARP:1,2011-09-01T00:48:00Z,28.4330,-82.6670,1017.42,1111122 
COMPS,ioos:station:USF.COMPS:ARP:1,2011-09-01T00:54:00Z,28.4330,-82.6670,1017.46,1111122 
COMPS,ioos:station:USF.COMPS:ARP:1,2011-09-01T01:00:00Z,28.4330,-82.6670,1017.53,1111122 
COMPS,ioos:station:USF.COMPS:ARP:1,2011-09-01T01:06:00Z,28.4330,-82.6670,1017.56,1111122 
COMPS,ioos:station:USF.COMPS:ARP:1,2011-09-01T01:12:00Z,28.4330,-82.6670,1017.64,1111122 
COMPS,ioos:station:USF.COMPS:ARP:1,2011-09-01T01:18:00Z,28.4330,-82.6670,1017.58,1111122 
COMPS,ioos:station:USF.COMPS:ARP:1,2011-09-01T01:24:00Z,28.4330,-82.6670,1017.56,1111122 
COMPS,ioos:station:USF.COMPS:ARP:1,2011-09-01T01:30:00Z,28.4330,-82.6670,1017.54,1111122 
COMPS,ioos:station:USF.COMPS:ARP:1,2011-09-01T01:36:00Z,28.4330,-82.6670,1017.54,1111122 
COMPS,ioos:station:USF.COMPS:ARP:1,2011-09-01T01:42:00Z,28.4330,-82.6670,1017.54,1111122 
COMPS,ioos:station:USF.COMPS:ARP:1,2011-09-01T01:48:00Z,28.4330,-82.6670,1017.52,1111122 
COMPS,ioos:station:USF.COMPS:ARP:1,2011-09-01T01:54:00Z,28.4330,-82.6670,1017.53,1111122 
COMPS,ioos:station:USF.COMPS:ARP:1,2011-09-01T02:00:00Z,28.4330,-82.6670,1017.36,1111122 
COMPS,ioos:station:USF.COMPS:ARP:1,2011-09-01T02:06:00Z,28.4330,-82.6670,1017.46,1111122 
COMPS,ioos:station:USF.COMPS:ARP:1,2011-09-01T02:12:00Z,28.4330,-82.6670,1017.56,1111122 
COMPS,ioos:station:USF.COMPS:ARP:1,2011-09-01T02:18:00Z,28.4330,-82.6670,1017.58,1111122 
COMPS,ioos:station:USF.COMPS:ARP:1,2011-09-01T02:24:00Z,28.4330,-82.6670,1017.72,1111122 
COMPS,ioos:station:USF.COMPS:ARP:1,2011-09-01T02:30:00Z,28.4330,-82.6670,1017.8,1111122 
COMPS,ioos:station:USF.COMPS:ARP:1,2011-09-01T02:36:00Z,28.4330,-82.6670,1017.94,1111122 
COMPS,ioos:station:USF.COMPS:ARP:1,2011-09-01T02:42:00Z,28.4330,-82.6670,1018.08,1111122 
COMPS,ioos:station:USF.COMPS:ARP:1,2011-09-01T02:48:00Z,28.4330,-82.6670,1018.12,1111122 
COMPS,ioos:station:USF.COMPS:ARP:1,2011-09-01T02:54:00Z,28.4330,-82.6670,1018.2,1111122 
COMPS,ioos:station:USF.COMPS:ARP:1,2011-09-01T03:00:00Z,28.4330,-82.6670,1018.25,1111122 
COMPS,ioos:station:USF.COMPS:ARP:1,2011-09-01T03:06:00Z,28.4330,-82.6670,1018.38,1111122 
COMPS,ioos:station:USF.COMPS:ARP:1,2011-09-01T03:12:00Z,28.4330,-82.6670,1018.5,1111122 
COMPS,ioos:station:USF.COMPS:ARP:1,2011-09-01T03:18:00Z,28.4330,-82.6670,1018.52,1111122 
COMPS,ioos:station:USF.COMPS:ARP:1,2011-09-01T03:24:00Z,28.4330,-82.6670,1018.66,1111122 
COMPS,ioos:station:USF.COMPS:ARP:1,2011-09-01T03:30:00Z,28.4330,-82.6670,1018.78,1111122 
COMPS,ioos:station:USF.COMPS:ARP:1,2011-09-01T03:36:00Z,28.4330,-82.6670,1018.8,1111122 
COMPS,ioos:station:USF.COMPS:ARP:1,2011-09-01T03:42:00Z,28.4330,-82.6670,1018.8,1111122 
COMPS,ioos:station:USF.COMPS:ARP:1,2011-09-01T03:48:00Z,28.4330,-82.6670,1018.8,1111122 
COMPS,ioos:station:USF.COMPS:ARP:1,2011-09-01T03:54:00Z,28.4330,-82.6670,1018.8,1111122 
COMPS,ioos:station:USF.COMPS:ARP:1,2011-09-01T18:00:00Z,28.4330,-82.6670,1017.41,1111122 
COMPS,ioos:station:USF.COMPS:ARP:1,2011-09-01T18:06:00Z,28.4330,-82.6670,1017.41,1111122 
COMPS,ioos:station:USF.COMPS:ARP:1,2011-09-01T18:12:00Z,28.4330,-82.6670,1017.41,1111122 
COMPS,ioos:station:USF.COMPS:ARP:1,2011-09-01T18:18:00Z,28.4330,-82.6670,1017.4,1111122 
COMPS,ioos:station:USF.COMPS:ARP:1,2011-09-01T18:24:00Z,28.4330,-82.6670,1017.33,1111122 
COMPS,ioos:station:USF.COMPS:ARP:1,2011-09-01T18:30:00Z,28.4330,-82.6670,1017.21,1111122 
COMPS,ioos:station:USF.COMPS:ARP:1,2011-09-01T18:36:00Z,28.4330,-82.6670,1017.1,1111122 
COMPS,ioos:station:USF.COMPS:ARP:1,2011-09-01T18:42:00Z,28.4330,-82.6670,1016.98,1111122 
COMPS,ioos:station:USF.COMPS:ARP:1,2011-09-01T18:48:00Z,28.4330,-82.6670,1016.89,1111122 
COMPS,ioos:station:USF.COMPS:ARP:1,2011-09-01T18:54:00Z,28.4330,-82.6670,1016.84,1111122 
COMPS,ioos:station:USF.COMPS:ARP:1,2011-09-01T19:00:00Z,28.4330,-82.6670,1016.72,1111122 
COMPS,ioos:station:USF.COMPS:ARP:1,2011-09-01T19:06:00Z,28.4330,-82.6670,1016.61,1111122 
COMPS,ioos:station:USF.COMPS:ARP:1,2011-09-01T19:12:00Z,28.4330,-82.6670,1016.53,1111122 
COMPS,ioos:station:USF.COMPS:ARP:1,2011-09-01T19:18:00Z,28.4330,-82.6670,1016.42,1111122 
COMPS,ioos:station:USF.COMPS:ARP:1,2011-09-01T19:24:00Z,28.4330,-82.6670,1016.26,1111122 
COMPS,ioos:station:USF.COMPS:ARP:1,2011-09-01T19:30:00Z,28.4330,-82.6670,1016.16,1111122 
COMPS,ioos:station:USF.COMPS:ARP:1,2011-09-01T19:36:00Z,28.4330,-82.6670,1016.05,1111122 
COMPS,ioos:station:USF.COMPS:ARP:1,2011-09-01T19:42:00Z,28.4330,-82.6670,1016.05,1111122 
COMPS,ioos:station:USF.COMPS:ARP:1,2011-09-01T19:48:00Z,28.4330,-82.6670,1016.05,1111122 
COMPS,ioos:station:USF.COMPS:ARP:1,2011-09-01T19:54:00Z,28.4330,-82.6670,1016.05,1111122 
COMPS,ioos:station:USF.COMPS:ARP:1,2011-09-01T20:00:00Z,28.4330,-82.6670,1016.12,1111122 
COMPS,ioos:station:USF.COMPS:ARP:1,2011-09-01T20:06:00Z,28.4330,-82.6670,1016.26,1111122 
COMPS,ioos:station:USF.COMPS:ARP:1,2011-09-01T20:12:00Z,28.4330,-82.6670,1016.3,1111122 
COMPS,ioos:station:USF.COMPS:ARP:1,2011-09-01T20:18:00Z,28.4330,-82.6670,1016.29,1111122 
COMPS,ioos:station:USF.COMPS:ARP:1,2011-09-01T20:24:00Z,28.4330,-82.6670,1016.26,1111122 
COMPS,ioos:station:USF.COMPS:ARP:1,2011-09-01T20:30:00Z,28.4330,-82.6670,1016.25,1111122 
COMPS,ioos:station:USF.COMPS:ARP:1,2011-09-01T20:36:00Z,28.4330,-82.6670,1016.17,1111122 
COMPS,ioos:station:USF.COMPS:ARP:1,2011-09-01T20:42:00Z,28.4330,-82.6670,1016.01,1111122 
COMPS,ioos:station:USF.COMPS:ARP:1,2011-09-01T20:48:00Z,28.4330,-82.6670,1015.88,1111122 
COMPS,ioos:station:USF.COMPS:ARP:1,2011-09-01T20:54:00Z,28.4330,-82.6670,1015.86,1111122 
COMPS,ioos:station:USF.COMPS:ARP:1,2011-09-01T21:00:00Z,28.4330,-82.6670,1015.7,1111122 
COMPS,ioos:station:USF.COMPS:ARP:1,2011-09-01T21:06:00Z,28.4330,-82.6670,1015.68,1111122 
COMPS,ioos:station:USF.COMPS:ARP:1,2011-09-01T21:12:00Z,28.4330,-82.6670,1015.93,1111122 
COMPS,ioos:station:USF.COMPS:ARP:1,2011-09-01T21:18:00Z,28.4330,-82.6670,1016.13,1111122 
COMPS,ioos:station:USF.COMPS:ARP:1,2011-09-01T21:24:00Z,28.4330,-82.6670,1016.4,1111122 
COMPS,ioos:station:USF.COMPS:ARP:1,2011-09-01T21:30:00Z,28.4330,-82.6670,1016.72,1111122 
COMPS,ioos:station:USF.COMPS:ARP:1,2011-09-01T21:36:00Z,28.4330,-82.6670,1017.0,1111122 
COMPS,ioos:station:USF.COMPS:ARP:1,2011-09-01T21:42:00Z,28.4330,-82.6670,1017.0,1111122 
COMPS,ioos:station:USF.COMPS:ARP:1,2011-09-01T21:48:00Z,28.4330,-82.6670,1016.82,1111122 
COMPS,ioos:station:USF.COMPS:ARP:1,2011-09-01T21:54:00Z,28.4330,-82.6670,1016.56,1111122 
COMPS,ioos:station:USF.COMPS:ARP:1,2011-09-01T22:00:00Z,28.4330,-82.6670,1016.29,1111122 
COMPS,ioos:station:USF.COMPS:ARP:1,2011-09-01T22:06:00Z,28.4330,-82.6670,1016.08,1111122 
COMPS,ioos:station:USF.COMPS:ARP:1,2011-09-01T22:12:00Z,28.4330,-82.6670,1015.92,1111122 
COMPS,ioos:station:USF.COMPS:ARP:1,2011-09-01T22:18:00Z,28.4330,-82.6670,1015.85,1111122 
COMPS,ioos:station:USF.COMPS:ARP:1,2011-09-01T22:24:00Z,28.4330,-82.6670,1015.8,1111122 
COMPS,ioos:station:USF.COMPS:ARP:1,2011-09-01T22:30:00Z,28.4330,-82.6670,1015.78,1111122 
COMPS,ioos:station:USF.COMPS:ARP:1,2011-09-01T22:36:00Z,28.4330,-82.6670,1015.92,1111122 
COMPS,ioos:station:USF.COMPS:ARP:1,2011-09-01T22:42:00Z,28.4330,-82.6670,1016.06,1111122 
COMPS,ioos:station:USF.COMPS:ARP:1,2011-09-01T22:48:00Z,28.4330,-82.6670,1016.22,1111122 
COMPS,ioos:station:USF.COMPS:ARP:1,2011-09-01T22:54:00Z,28.4330,-82.6670,1016.29,1111122 
COMPS,ioos:station:USF.COMPS:ARP:1,2011-09-01T23:00:00Z,28.4330,-82.6670,1016.33,1111122 
COMPS,ioos:station:USF.COMPS:ARP:1,2011-09-01T23:06:00Z,28.4330,-82.6670,1016.37,1111122 
COMPS,ioos:station:USF.COMPS:ARP:1,2011-09-01T23:12:00Z,28.4330,-82.6670,1016.34,1111122 
COMPS,ioos:station:USF.COMPS:ARP:1,2011-09-01T23:18:00Z,28.4330,-82.6670,1016.46,1111122 
COMPS,ioos:station:USF.COMPS:ARP:1,2011-09-01T23:24:00Z,28.4330,-82.6670,1016.52,1111122 
COMPS,ioos:station:USF.COMPS:ARP:1,2011-09-01T23:30:00Z,28.4330,-82.6670,1016.58,1111122 
COMPS,ioos:station:USF.COMPS:ARP:1,2011-09-01T23:36:00Z,28.4330,-82.6670,1016.6,1111122 
COMPS,ioos:station:USF.COMPS:ARP:1,2011-09-01T23:42:00Z,28.4330,-82.6670,1016.61,1111122 
COMPS,ioos:station:USF.COMPS:ARP:1,2011-09-01T23:48:00Z,28.4330,-82.6670,1016.7,1111122 
COMPS,ioos:station:USF.COMPS:ARP:1,2011-09-01T23:54:00Z,28.4330,-82.6670,1016.7,1111122 
COMPS,ioos:station:USF.COMPS:ARP:1,2011-09-02T00:00:00Z,28.4330,-82.6670,1016.86,1111122 
COMPS,ioos:station:USF.COMPS:ARP:1,2011-09-02T00:06:00Z,28.4330,-82.6670,1016.82,1111122 
COMPS,ioos:station:USF.COMPS:ARP:1,2011-09-02T00:12:00Z,28.4330,-82.6670,1016.78,1111122 
COMPS,ioos:station:USF.COMPS:ARP:1,2011-09-02T00:18:00Z,28.4330,-82.6670,1016.66,1111122 
COMPS,ioos:station:USF.COMPS:ARP:1,2011-09-02T00:24:00Z,28.4330,-82.6670,1016.8,1111122 
COMPS,ioos:station:USF.COMPS:ARP:1,2011-09-02T00:30:00Z,28.4330,-82.6670,1016.86,1111122 
COMPS,ioos:station:USF.COMPS:ARP:1,2011-09-02T00:36:00Z,28.4330,-82.6670,1016.96,1111122 
COMPS,ioos:station:USF.COMPS:ARP:1,2011-09-02T00:42:00Z,28.4330,-82.6670,1017.02,1111122 
COMPS,ioos:station:USF.COMPS:ARP:1,2011-09-02T00:48:00Z,28.4330,-82.6670,1017.02,1111122 
COMPS,ioos:station:USF.COMPS:ARP:1,2011-09-02T00:54:00Z,28.4330,-82.6670,1016.96,1111122 
COMPS,ioos:station:USF.COMPS:ARP:1,2011-09-02T01:00:00Z,28.4330,-82.6670,1016.89,1111122 
COMPS,ioos:station:USF.COMPS:ARP:1,2011-09-02T01:06:00Z,28.4330,-82.6670,1016.96,1111122 
COMPS,ioos:station:USF.COMPS:ARP:1,2011-09-02T01:12:00Z,28.4330,-82.6670,1016.89,1111122 
COMPS,ioos:station:USF.COMPS:ARP:1,2011-09-02T01:18:00Z,28.4330,-82.6670,1016.92,1111122 
COMPS,ioos:station:USF.COMPS:ARP:1,2011-09-02T01:24:00Z,28.4330,-82.6670,1016.96,1111122 
COMPS,ioos:station:USF.COMPS:ARP:1,2011-09-02T01:30:00Z,28.4330,-82.6670,1016.89,1111122 
COMPS,ioos:station:USF.COMPS:ARP:1,2011-09-02T01:36:00Z,28.4330,-82.6670,1016.89,1111122 
COMPS,ioos:station:USF.COMPS:ARP:1,2011-09-02T01:42:00Z,28.4330,-82.6670,1016.93,1111122 
COMPS,ioos:station:USF.COMPS:ARP:1,2011-09-02T01:48:00Z,28.4330,-82.6670,1016.92,1111122 
COMPS,ioos:station:USF.COMPS:ARP:1,2011-09-02T01:54:00Z,28.4330,-82.6670,1016.89,1111122 
COMPS,ioos:station:USF.COMPS:ARP:1,2011-09-02T02:00:00Z,28.4330,-82.6670,1016.89,1111122 
COMPS,ioos:station:USF.COMPS:ARP:1,2011-09-02T02:06:00Z,28.4330,-82.6670,1016.89,1111122 
COMPS,ioos:station:USF.COMPS:ARP:1,2011-09-02T02:12:00Z,28.4330,-82.6670,1016.96,1111122 
COMPS,ioos:station:USF.COMPS:ARP:1,2011-09-02T02:18:00Z,28.4330,-82.6670,1016.98,1111122 
COMPS,ioos:station:USF.COMPS:ARP:1,2011-09-02T02:24:00Z,28.4330,-82.6670,1017.01,1111122 
COMPS,ioos:station:USF.COMPS:ARP:1,2011-09-02T02:30:00Z,28.4330,-82.6670,1017.01,1111122 
COMPS,ioos:station:USF.COMPS:ARP:1,2011-09-02T02:36:00Z,28.4330,-82.6670,1017.12,1111122 
COMPS,ioos:station:USF.COMPS:ARP:1,2011-09-02T02:42:00Z,28.4330,-82.6670,1017.0,1111122 
COMPS,ioos:station:USF.COMPS:ARP:1,2011-09-02T02:48:00Z,28.4330,-82.6670,1017.0,1111122 
COMPS,ioos:station:USF.COMPS:ARP:1,2011-09-02T02:54:00Z,28.4330,-82.6670,1017.01,1111122 
COMPS,ioos:station:USF.COMPS:ARP:1,2011-09-02T03:00:00Z,28.4330,-82.6670,1017.04,1111122 
COMPS,ioos:station:USF.COMPS:ARP:1,2011-09-02T03:06:00Z,28.4330,-82.6670,1017.14,1111122 
COMPS,ioos:station:USF.COMPS:ARP:1,2011-09-02T03:12:00Z,28.4330,-82.6670,1017.13,1111122 
COMPS,ioos:station:USF.COMPS:ARP:1,2011-09-02T03:18:00Z,28.4330,-82.6670,1017.0,1111122 
COMPS,ioos:station:USF.COMPS:ARP:1,2011-09-02T03:24:00Z,28.4330,-82.6670,1016.89,1111122 
COMPS,ioos:station:USF.COMPS:ARP:1,2011-09-02T03:30:00Z,28.4330,-82.6670,1016.86,1111122 
COMPS,ioos:station:USF.COMPS:ARP:1,2011-09-02T03:36:00Z,28.4330,-82.6670,1016.78,1111122 
COMPS,ioos:station:USF.COMPS:ARP:1,2011-09-02T03:42:00Z,28.4330,-82.6670,1016.74,1111122 
COMPS,ioos:station:USF.COMPS:ARP:1,2011-09-02T03:48:00Z,28.4330,-82.6670,1016.61,1111122 
COMPS,ioos:station:USF.COMPS:ARP:1,2011-09-02T03:54:00Z,28.4330,-82.6670,1016.61,1111122 
COMPS,ioos:station:USF.COMPS:ARP:1,2011-09-02T04:00:00Z,28.4330,-82.6670,1016.61,1111122 
COMPS,ioos:station:USF.COMPS:ARP:1,2011-09-02T04:06:00Z,28.4330,-82.6670,1016.6,1111122 
COMPS,ioos:station:USF.COMPS:ARP:1,2011-09-02T04:12:00Z,28.4330,-82.6670,1016.61,1111122 
COMPS,ioos:station:USF.COMPS:ARP:1,2011-09-02T04:18:00Z,28.4330,-82.6670,1016.61,1111122 
COMPS,ioos:station:USF.COMPS:ARP:1,2011-09-02T04:24:00Z,28.4330,-82.6670,1016.61,1111122 
COMPS,ioos:station:USF.COMPS:ARP:1,2011-09-02T04:30:00Z,28.4330,-82.6670,1016.61,1111122 
COMPS,ioos:station:USF.COMPS:ARP:1,2011-09-02T04:36:00Z,28.4330,-82.6670,1016.58,1111122 
COMPS,ioos:station:USF.COMPS:ARP:1,2011-09-02T04:42:00Z,28.4330,-82.6670,1016.52,1111122 
COMPS,ioos:station:USF.COMPS:ARP:1,2011-09-02T04:48:00Z,28.4330,-82.6670,1016.45,1111122 
COMPS,ioos:station:USF.COMPS:ARP:1,2011-09-02T04:54:00Z,28.4330,-82.6670,1016.33,1111122 
COMPS,ioos:station:USF.COMPS:ARP:1,2011-09-02T05:00:00Z,28.4330,-82.6670,1016.3,1111122 
COMPS,ioos:station:USF.COMPS:ARP:1,2011-09-02T05:06:00Z,28.4330,-82.6670,1016.28,1111122 
COMPS,ioos:station:USF.COMPS:ARP:1,2011-09-02T05:12:00Z,28.4330,-82.6670,1016.28,1111122 
COMPS,ioos:station:USF.COMPS:ARP:1,2011-09-02T05:18:00Z,28.4330,-82.6670,1016.2,1111122 
COMPS,ioos:station:USF.COMPS:ARP:1,2011-09-02T05:24:00Z,28.4330,-82.6670,1016.1,1111122 
COMPS,ioos:station:USF.COMPS:ARP:1,2011-09-02T05:30:00Z,28.4330,-82.6670,1016.06,1111122 
COMPS,ioos:station:USF.COMPS:ARP:1,2011-09-02T05:36:00Z,28.4330,-82.6670,1015.96,1111122 
COMPS,ioos:station:USF.COMPS:ARP:1,2011-09-02T05:42:00Z,28.4330,-82.6670,1015.93,1111122 
COMPS,ioos:station:USF.COMPS:ARP:1,2011-09-02T05:48:00Z,28.4330,-82.6670,1015.9,1111122 
COMPS,ioos:station:USF.COMPS:ARP:1,2011-09-02T05:54:00Z,28.4330,-82.6670,1015.78,1111122 
COMPS,ioos:station:USF.COMPS:ARP:1,2011-09-02T06:00:00Z,28.4330,-82.6670,1015.77,1111122 
COMPS,ioos:station:USF.COMPS:ARP:1,2011-09-02T06:06:00Z,28.4330,-82.6670,1015.78,1111122 
COMPS,ioos:station:USF.COMPS:ARP:1,2011-09-02T06:12:00Z,28.4330,-82.6670,1015.78,1111122 
COMPS,ioos:station:USF.COMPS:ARP:1,2011-09-02T06:18:00Z,28.4330,-82.6670,1015.78,1111122 
COMPS,ioos:station:USF.COMPS:ARP:1,2011-09-02T06:24:00Z,28.4330,-82.6670,1015.78,1111122 
COMPS,ioos:station:USF.COMPS:ARP:1,2011-09-02T06:30:00Z,28.4330,-82.6670,1015.76,1111122 
COMPS,ioos:station:USF.COMPS:ARP:1,2011-09-02T06:36:00Z,28.4330,-82.6670,1015.65,1111122 
COMPS,ioos:station:USF.COMPS:ARP:1,2011-09-02T06:42:00Z,28.4330,-82.6670,1015.58,1111122 
COMPS,ioos:station:USF.COMPS:ARP:1,2011-09-02T06:48:00Z,28.4330,-82.6670,1015.53,1111122 
COMPS,ioos:station:USF.COMPS:ARP:1,2011-09-02T06:54:00Z,28.4330,-82.6670,1015.46,1111122 
COMPS,ioos:station:USF.COMPS:ARP:1,2011-09-02T07:00:00Z,28.4330,-82.6670,1015.38,1111122 
COMPS,ioos:station:USF.COMPS:ARP:1,2011-09-02T07:06:00Z,28.4330,-82.6670,1015.25,1111122 
COMPS,ioos:station:USF.COMPS:ARP:1,2011-09-02T07:12:00Z,28.4330,-82.6670,1015.13,1111122 
COMPS,ioos:station:USF.COMPS:ARP:1,2011-09-02T07:18:00Z,28.4330,-82.6670,1015.01,1111122 
COMPS,ioos:station:USF.COMPS:ARP:1,2011-09-02T07:24:00Z,28.4330,-82.6670,1014.88,1111122 
COMPS,ioos:station:USF.COMPS:ARP:1,2011-09-02T07:30:00Z,28.4330,-82.6670,1014.8,1111122 
COMPS,ioos:station:USF.COMPS:ARP:1,2011-09-02T07:36:00Z,28.4330,-82.6670,1014.82,1111122 
COMPS,ioos:station:USF.COMPS:ARP:1,2011-09-02T07:42:00Z,28.4330,-82.6670,1014.84,1111122 
COMPS,ioos:station:USF.COMPS:ARP:1,2011-09-02T07:48:00Z,28.4330,-82.6670,1014.84,1111122 
COMPS,ioos:station:USF.COMPS:ARP:1,2011-09-02T07:54:00Z,28.4330,-82.6670,1014.78,1111122 
COMPS,ioos:station:USF.COMPS:ARP:1,2011-09-02T08:00:00Z,28.4330,-82.6670,1014.85,1111122 
COMPS,ioos:station:USF.COMPS:ARP:1,2011-09-02T08:06:00Z,28.4330,-82.6670,1014.8,1111122 
COMPS,ioos:station:USF.COMPS:ARP:1,2011-09-02T08:12:00Z,28.4330,-82.6670,1014.74,1111122 
COMPS,ioos:station:USF.COMPS:ARP:1,2011-09-02T08:18:00Z,28.4330,-82.6670,1014.7,1111122 
COMPS,ioos:station:USF.COMPS:ARP:1,2011-09-02T08:24:00Z,28.4330,-82.6670,1014.69,1111122 
COMPS,ioos:station:USF.COMPS:ARP:1,2011-09-02T08:30:00Z,28.4330,-82.6670,1014.7,1111122 
COMPS,ioos:station:USF.COMPS:ARP:1,2011-09-02T08:36:00Z,28.4330,-82.6670,1014.69,1111122 
COMPS,ioos:station:USF.COMPS:ARP:1,2011-09-02T08:42:00Z,28.4330,-82.6670,1014.7,1111122 
COMPS,ioos:station:USF.COMPS:ARP:1,2011-09-02T08:48:00Z,28.4330,-82.6670,1014.74,1111122 
COMPS,ioos:station:USF.COMPS:ARP:1,2011-09-02T08:54:00Z,28.4330,-82.6670,1014.74,1111122 
COMPS,ioos:station:USF.COMPS:ARP:1,2011-09-02T09:00:00Z,28.4330,-82.6670,1014.73,1111122 
COMPS,ioos:station:USF.COMPS:ARP:1,2011-09-02T09:06:00Z,28.4330,-82.6670,1014.77,1111122 
COMPS,ioos:station:USF.COMPS:ARP:1,2011-09-02T09:12:00Z,28.4330,-82.6670,1014.9,1111122 
COMPS,ioos:station:USF.COMPS:ARP:1,2011-09-02T09:18:00Z,28.4330,-82.6670,1014.9,1111122 
COMPS,ioos:station:USF.COMPS:ARP:1,2011-09-02T09:24:00Z,28.4330,-82.6670,1015.05,1111122 
COMPS,ioos:station:USF.COMPS:ARP:1,2011-09-02T09:30:00Z,28.4330,-82.6670,1015.1,1111122 
COMPS,ioos:station:USF.COMPS:ARP:1,2011-09-02T09:36:00Z,28.4330,-82.6670,1015.17,1111122 
COMPS,ioos:station:USF.COMPS:ARP:1,2011-09-02T09:42:00Z,28.4330,-82.6670,1015.36,1111122 
COMPS,ioos:station:USF.COMPS:ARP:1,2011-09-02T09:48:00Z,28.4330,-82.6670,1015.52,1111122 
COMPS,ioos:station:USF.COMPS:ARP:1,2011-09-02T09:54:00Z,28.4330,-82.6670,1015.57,1111122 
COMPS,ioos:station:USF.COMPS:ARP:1,2011-09-02T11:00:00Z,28.4330,-82.6670,1015.96,1111122 
COMPS,ioos:station:USF.COMPS:ARP:1,2011-09-02T11:06:00Z,28.4330,-82.6670,1016.02,1111122 
COMPS,ioos:station:USF.COMPS:ARP:1,2011-09-02T11:12:00Z,28.4330,-82.6670,1016.06,1111122 
COMPS,ioos:station:USF.COMPS:ARP:1,2011-09-02T11:18:00Z,28.4330,-82.6670,1016.08,1111122 
COMPS,ioos:station:USF.COMPS:ARP:1,2011-09-02T11:24:00Z,28.4330,-82.6670,1016.18,1111122 
COMPS,ioos:station:USF.COMPS:ARP:1,2011-09-02T11:30:00Z,28.4330,-82.6670,1016.22,1111122 
COMPS,ioos:station:USF.COMPS:ARP:1,2011-09-02T11:36:00Z,28.4330,-82.6670,1016.41,1111122 
COMPS,ioos:station:USF.COMPS:ARP:1,2011-09-02T11:42:00Z,28.4330,-82.6670,1016.53,1111122 
COMPS,ioos:station:USF.COMPS:ARP:1,2011-09-02T11:48:00Z,28.4330,-82.6670,1016.52,1111122 
COMPS,ioos:station:USF.COMPS:ARP:1,2011-09-02T11:54:00Z,28.4330,-82.6670,1016.56,1111122 
COMPS,ioos:station:USF.COMPS:ARP:1,2011-09-02T12:00:00Z,28.4330,-82.6670,1016.62,1111122 
COMPS,ioos:station:USF.COMPS:ARP:1,2011-09-02T12:06:00Z,28.4330,-82.6670,1016.72,1111122 
COMPS,ioos:station:USF.COMPS:ARP:1,2011-09-02T12:12:00Z,28.4330,-82.6670,1016.74,1111122 
COMPS,ioos:station:USF.COMPS:ARP:1,2011-09-02T12:18:00Z,28.4330,-82.6670,1016.73,1111122 
COMPS,ioos:station:USF.COMPS:ARP:1,2011-09-02T12:24:00Z,28.4330,-82.6670,1016.74,1111122 
COMPS,ioos:station:USF.COMPS:ARP:1,2011-09-02T12:30:00Z,28.4330,-82.6670,1016.77,1111122 
COMPS,ioos:station:USF.COMPS:ARP:1,2011-09-02T12:36:00Z,28.4330,-82.6670,1016.81,1111122 
COMPS,ioos:station:USF.COMPS:ARP:1,2011-09-02T12:42:00Z,28.4330,-82.6670,1016.88,1111122 
COMPS,ioos:station:USF.COMPS:ARP:1,2011-09-02T12:48:00Z,28.4330,-82.6670,1016.92,1111122 
COMPS,ioos:station:USF.COMPS:ARP:1,2011-09-02T12:54:00Z,28.4330,-82.6670,1016.89,1111122 
COMPS,ioos:station:USF.COMPS:ARP:1,2011-09-02T13:00:00Z,28.4330,-82.6670,1016.92,1111122 
COMPS,ioos:station:USF.COMPS:ARP:1,2011-09-02T13:06:00Z,28.4330,-82.6670,1016.96,1111122 
COMPS,ioos:station:USF.COMPS:ARP:1,2011-09-02T13:12:00Z,28.4330,-82.6670,1016.92,1111122 
COMPS,ioos:station:USF.COMPS:ARP:1,2011-09-02T13:18:00Z,28.4330,-82.6670,1016.89,1111122 
COMPS,ioos:station:USF.COMPS:ARP:1,2011-09-02T13:24:00Z,28.4330,-82.6670,1016.98,1111122 
COMPS,ioos:station:USF.COMPS:ARP:1,2011-09-02T13:30:00Z,28.4330,-82.6670,1017.01,1111122 
COMPS,ioos:station:USF.COMPS:ARP:1,2011-09-02T13:36:00Z,28.4330,-82.6670,1017.0,1111122 
COMPS,ioos:station:USF.COMPS:ARP:1,2011-09-02T13:42:00Z,28.4330,-82.6670,1016.92,1111122 
COMPS,ioos:station:USF.COMPS:ARP:1,2011-09-02T13:48:00Z,28.4330,-82.6670,1016.78,1111122 
COMPS,ioos:station:USF.COMPS:ARP:1,2011-09-02T13:54:00Z,28.4330,-82.6670,1016.78,1111122 
COMPS,ioos:station:USF.COMPS:ARP:1,2011-09-02T14:00:00Z,28.4330,-82.6670,1016.8,1111122 
COMPS,ioos:station:USF.COMPS:ARP:1,2011-09-02T14:06:00Z,28.4330,-82.6670,1016.74,1111122 
COMPS,ioos:station:USF.COMPS:ARP:1,2011-09-02T14:12:00Z,28.4330,-82.6670,1016.72,1111122 
COMPS,ioos:station:USF.COMPS:ARP:1,2011-09-02T14:18:00Z,28.4330,-82.6670,1016.72,1111122 
COMPS,ioos:station:USF.COMPS:ARP:1,2011-09-02T14:24:00Z,28.4330,-82.6670,1016.72,1111122 
COMPS,ioos:station:USF.COMPS:ARP:1,2011-09-02T14:30:00Z,28.4330,-82.6670,1016.58,1111122 
COMPS,ioos:station:USF.COMPS:ARP:1,2011-09-02T14:36:00Z,28.4330,-82.6670,1016.49,1111122 
COMPS,ioos:station:USF.COMPS:ARP:1,2011-09-02T14:42:00Z,28.4330,-82.6670,1016.46,1111122 
COMPS,ioos:station:USF.COMPS:ARP:1,2011-09-02T14:48:00Z,28.4330,-82.6670,1016.46,1111122 
COMPS,ioos:station:USF.COMPS:ARP:1,2011-09-02T14:54:00Z,28.4330,-82.6670,1016.53,1111122 
COMPS,ioos:station:USF.COMPS:ARP:1,2011-09-02T15:00:00Z,28.4330,-82.6670,1016.6,1111122 
COMPS,ioos:station:USF.COMPS:ARP:1,2011-09-02T15:06:00Z,28.4330,-82.6670,1016.5,1111122 
COMPS,ioos:station:USF.COMPS:ARP:1,2011-09-02T15:12:00Z,28.4330,-82.6670,1016.48,1111122 
COMPS,ioos:station:USF.COMPS:ARP:1,2011-09-02T15:18:00Z,28.4330,-82.6670,1016.49,1111122 
COMPS,ioos:station:USF.COMPS:ARP:1,2011-09-02T15:24:00Z,28.4330,-82.6670,1016.49,1111122 
COMPS,ioos:station:USF.COMPS:ARP:1,2011-09-02T15:30:00Z,28.4330,-82.6670,1016.52,1111122 
COMPS,ioos:station:USF.COMPS:ARP:1,2011-09-02T15:36:00Z,28.4330,-82.6670,1016.41,1111122 
COMPS,ioos:station:USF.COMPS:ARP:1,2011-09-02T15:42:00Z,28.4330,-82.6670,1016.36,1111122 
COMPS,ioos:station:USF.COMPS:ARP:1,2011-09-02T15:48:00Z,28.4330,-82.6670,1016.29,1111122 
COMPS,ioos:station:USF.COMPS:ARP:1,2011-09-02T15:54:00Z,28.4330,-82.6670,1016.21,1111122 
COMPS,ioos:station:USF.COMPS:ARP:1,2011-09-02T17:00:00Z,28.4330,-82.6670,1015.44,1111122 
COMPS,ioos:station:USF.COMPS:ARP:1,2011-09-02T17:06:00Z,28.4330,-82.6670,1015.32,1111122 
COMPS,ioos:station:USF.COMPS:ARP:1,2011-09-02T17:12:00Z,28.4330,-82.6670,1015.28,1111122 
COMPS,ioos:station:USF.COMPS:ARP:1,2011-09-02T17:18:00Z,28.4330,-82.6670,1015.28,1111122 
COMPS,ioos:station:USF.COMPS:ARP:1,2011-09-02T17:24:00Z,28.4330,-82.6670,1015.26,1111122 
COMPS,ioos:station:USF.COMPS:ARP:1,2011-09-02T17:30:00Z,28.4330,-82.6670,1015.22,1111122 
COMPS,ioos:station:USF.COMPS:ARP:1,2011-09-02T17:36:00Z,28.4330,-82.6670,1015.22,1111122 
COMPS,ioos:station:USF.COMPS:ARP:1,2011-09-02T17:42:00Z,28.4330,-82.6670,1015.1,1111122 
COMPS,ioos:station:USF.COMPS:ARP:1,2011-09-02T17:48:00Z,28.4330,-82.6670,1014.96,1111122 
COMPS,ioos:station:USF.COMPS:ARP:1,2011-09-02T17:54:00Z,28.4330,-82.6670,1014.92,1111122 
COMPS,ioos:station:USF.COMPS:ARP:1,2011-09-02T18:00:00Z,28.4330,-82.6670,1014.93,1111122 
COMPS,ioos:station:USF.COMPS:ARP:1,2011-09-02T18:06:00Z,28.4330,-82.6670,1014.94,1111122 
COMPS,ioos:station:USF.COMPS:ARP:1,2011-09-02T18:12:00Z,28.4330,-82.6670,1014.93,1111122 
COMPS,ioos:station:USF.COMPS:ARP:1,2011-09-02T18:18:00Z,28.4330,-82.6670,1014.81,1111122 
COMPS,ioos:station:USF.COMPS:ARP:1,2011-09-02T18:24:00Z,28.4330,-82.6670,1014.68,1111122 
COMPS,ioos:station:USF.COMPS:ARP:1,2011-09-02T18:30:00Z,28.4330,-82.6670,1014.52,1111122 